Regional Weather Roundup
Issued by NWS

Home | Current Version | Previous Version | Graphics & Text | Print | Product List | Glossary On
Versions: 1 2 3 4 5 6 7 8 9 10 11 12 13 14 15 16 17 18 19 20 21 22 23 24 25 26 27 28 29 30 31 32 33 34 35 36 37 38 39 40 41 42 43 44 45 46 47 48 49 50
000
ASUS45 KTFX 301719
RWRMT
MONTANA REGIONAL WEATHER ROUNDUP
NATIONAL WEATHER SERVICE GREAT FALLS MT
1100 AM MDT SUN AUG 30 2015

NOTE: "FAIR" INDICATES FEW OR NO CLOUDS BELOW 12000 FEET WITH NO
SIGNIFICANT WEATHER AND/OR OBSTRUCTIONS TO VISIBILITY.

MTZ001>007-043-301800-
WEST OF THE DIVIDE

CITY           SKY/WX    TMP DP  RH WIND       PRES   REMARKS
KALISPELL      MOSUNNY   66  49  54 S13       29.85F
MISSOULA       CLOUDY    64  49  57 E7        29.91S HAZE
BUTTE          SUNNY     68  37  32 SW14G28   29.97F
MULLAN PASS    PTSUNNY   52  40  63 VRB5      29.96S
DEER LODGE       N/A     64  48  55 N6        29.97S
EUREKA           N/A     63  43  48 E10       29.82F
HAMILTON         N/A     64  52  63 SW5       29.92S
LIBBY            N/A     61  46  59 W3        29.83R
PLAINS           N/A     67  50  54 E1        29.88F
RONAN            N/A     66  52  60 CALM      29.94F
$$

MTZ008-052>055-301800-
SOUTHWEST MONTANA

CITY           SKY/WX    TMP DP  RH WIND       PRES   REMARKS
BOZEMAN        SUNNY     70  49  47 S5        29.93F
DILLON         SUNNY     71  43  36 W16       29.96F
W YELLOWSTONE  PTSUNNY   63  48  59 SW14G20   30.10S
THREE FORKS      N/A     71  66  84 E9        29.92F
TWIN BRIDGES     N/A     70  44  38 S8        29.96S
$$

MTZ009-010-012-014-046-048-049-054-301800-
EAST SLOPES AND CENTRAL MONTANA

CITY           SKY/WX    TMP DP  RH WIND       PRES   REMARKS
CUT BANK       SUNNY     68  36  30 SW40G48   29.79F
GREAT FALLS    CLOUDY    70  51  51 SW15      29.83S HAZE
HELENA         SUNNY     72  48  42 N6        29.87S
CONRAD           N/A     74  41  30 SW18      29.85F
$$

MTZ011-013-016-021-045-047-050-051-301800-
NORTH CENTRAL MONTANA

CITY           SKY/WX    TMP DP  RH WIND       PRES   REMARKS
HAVRE          CLOUDY    68  52  56 MISG      29.79R
LEWISTOWN      CLOUDY    64  55  72 SE7       29.88F
N BAR RANCH    PTSUNNY   61  54  77 CALM      29.92F
CHINOOK          N/A     64  57  77 E3        29.77F
FORT BENTON      N/A     68  52  56 W8        29.81S
$$

MTZ017>020-022>027-061-062-301800-
NORTHEAST MONTANA

CITY           SKY/WX    TMP DP  RH WIND       PRES   REMARKS
GLASGOW        PTSUNNY   71  49  45 NW14G24   29.83R
JORDAN           N/A     72  50  45 NW30G43   29.87R
SIDNEY         CLOUDY    84  54  34 N7        29.65R
WOLF POINT     CLOUDY    87  50  27 W18G28    29.73R
MALTA            N/A     62  56  81 CALM      29.81R
PLENTYWOOD       N/A     79  45  29 N15       29.67R
POPLAR           N/A     84  46  26 NW16G24   29.69R
SCOBEY           N/A     75  45  34 NW9       29.75R
$$

MTZ028>42-056>058-301800-
SOUTHCENTRAL AND SOUTHEAST MONTANA

CITY           SKY/WX    TMP DP  RH WIND       PRES   REMARKS
BAKER          PTSUNNY   84  45  25 W12G24    29.76R
BILLINGS       PTSUNNY   73  47  39 N21G31    29.92R
LIVINGSTON     MOSUNNY   70  50  49 N5        29.94R
MILES CITY     LGT RAIN  77  52  41 NW20      29.78R
EKALAKA          N/A     83  45  26 W1        29.81R
FORSYTH          N/A     73  48  40 NW17G30   29.82F
LAUREL           N/A     72  46  39 NW9       29.91F
ROUNDUP          N/A     68  54  60 CALM      29.83F
$$

REGIONAL REPORTS...DAKOTAS

CITY           SKY/WX    TMP DP  RH WIND       PRES   REMARKS
WILLISTON      PTSUNNY   83  51  33 N17       29.65F HAZE
MINOT          PTSUNNY   87  58  37 SE8       29.63F
DICKINSON      PTSUNNY   88  44  21 SW9G18    29.69F
BEACH            N/A     84  43  23 W6        29.74R
CROSBY           N/A     84  52  32 NW22G29   29.69R HAZE
BISMARCK       PTSUNNY   82  59  45 SE10      29.70F
GRAND FORKS    MOSUNNY   76  66  71 S15       29.75F
FARGO          SUNNY     78  65  63 SE16      29.81F
BUFFALO SD       N/A     87  45  23 W14       29.72R
RAPID CITY     MOSUNNY   84  56  38 S12       29.82S
$$

REGIONAL REPORTS...WYOMING/IDAHO/WASHINGTON

CITY           SKY/WX    TMP DP  RH WIND       PRES   REMARKS
GILLETTE       PTSUNNY   88  41  19 VRB3      29.89F
SHERIDAN       PTSUNNY   74  51  44 CALM      29.85S
BUFFALO WY     PTSUNNY   88  40  18 SE9       29.94S
CODY           PTSUNNY   72  48  43 NE18      29.98R
YELLOWSTONE LA   N/A     62  43  49 VRB6      30.20S
IDAHO FALLS    SUNNY     71  48  43 SW18      30.04S
SALMON         MOSUNNY   75  43  31 S18G24    29.90F
BOISE          SUNNY     72  41  32 W7        30.01R
SPOKANE        CLOUDY    56  51  84 S13       29.87S
$$

REGIONAL REPORTS...ALBERTA

CITY           SKY/WX    TMP DP  RH WIND       PRES   REMARKS
EDMONTON       SUNNY     70  48  46 SW6       29.50R
CALGARY        PTSUNNY   66  37  34 S14G21    29.61F
LETHBRIDGE     MOSUNNY   72  34  25 W23G35    29.71F
MEDICINE HAT   PTSUNNY   70  41  35 SW12G21   29.70
WATERTON GATE    N/A     64  36  34 SW24G36     N/A
CARDSTON         N/A     68  34  28 SW9G17      N/A
MILK RIVER       N/A     72  37  28 SW16G23     N/A
ONEFOUR          N/A     66  45  45 S7          N/A
$$

REGIONAL REPORTS...SASKATCHEWAN

CITY           SKY/WX    TMP DP  RH WIND       PRES   REMARKS
SWIFT CURRENT  SUNNY     70  46  43 SW12      29.73S
REGINA         LGT RAIN  66  55  68 W7        29.70R SMOKE
SASKATOON      CLOUDY    70  50  49 SW16      29.63S
CYPRESS HILLS    N/A     61  43  51 SW9         N/A
VAL MARIE        N/A     61  55  82 S7          N/A
ROCKGLEN         N/A     66  50  55 W10         N/A
$$


USA.gov is the U.S. government's official web portal to all federal, state and local government web resources and services.